When you browse on this site, cookies collect data to enhance your experience and personalize the content and advertising you see.
Visit our Privacy Policy to learn more. By continuing to use the site, you agree to this use of cookies and data.
  • In Hungary
  • List of Countries
  • For 7 days
  • Water Temperature
  • Weather Map
  • News
  • Weather Widgets
  • user-avatar
    Login

    Hourly Weather Yadrovka

    Today, 22 January, Wednesday

    Time Temperature Precipitation Wind Pressure Humidity
    00:00 -3°C° 0.3 mm 9 mps 737 mmHg 98%
    01:00 -3°C° 0.6 mm 9 mps 737 mmHg 98%
    02:00 -1°C° 0.6 mm 9 mps 736 mmHg 99%
    03:00 -1°C° 0 mm 8 mps 736 mmHg 99%
    04:00 -1°C° 0.1 mm 8 mps 736 mmHg 96%
    05:00 -1°C° 0.1 mm 8 mps 736 mmHg 93%
    06:00 -1°C° 0.1 mm 7 mps 736 mmHg 90%
    07:00 -2°C° 0 mm 7 mps 736 mmHg 90%
    08:00 -3°C° 0 mm 7 mps 736 mmHg 89%
    09:00 -4°C° 0 mm 6 mps 737 mmHg 88%
    10:00 -4°C° 0 mm 6 mps 737 mmHg 88%
    11:00 -4°C° 0 mm 6 mps 737 mmHg 89%
    12:00 -3°C° 0 mm 6 mps 737 mmHg 89%
    13:00 -3°C° 0 mm 6 mps 736 mmHg 89%
    14:00 -2°C° 0 mm 5 mps 736 mmHg 89%
    15:00 -3°C° 0 mm 4 mps 735 mmHg 89%
    16:00 -3°C° 0 mm 4 mps 735 mmHg 90%
    17:00 -3°C° 0 mm 4 mps 735 mmHg 92%
    18:00 -4°C° 0 mm 3 mps 735 mmHg 93%
    19:00 -5°C° 0 mm 3 mps 735 mmHg 93%
    20:00 -6°C° 0 mm 3 mps 734 mmHg 93%
    21:00 -6°C° 0 mm 2 mps 734 mmHg 93%
    22:00 -5°C° 0 mm 2 mps 734 mmHg 93%
    23:00 -6°C° 0 mm 3 mps 733 mmHg 93%

    Tomorrow, 23 January, Thursday

    Time Temperature Precipitation Wind Pressure Humidity
    00:00 -6°C° 0 mm 3 mps 733 mmHg 94%
    01:00 -5°C° 0.2 mm 4 mps 733 mmHg 93%
    02:00 -4°C° 0.2 mm 4 mps 733 mmHg 93%
    03:00 -4°C° 0.2 mm 5 mps 733 mmHg 93%
    04:00 -5°C° 0.1 mm 6 mps 733 mmHg 92%
    05:00 -5°C° 0.1 mm 6 mps 734 mmHg 90%
    06:00 -7°C° 0.1 mm 7 mps 734 mmHg 89%
    07:00 -7°C° 0 mm 7 mps 734 mmHg 89%
    08:00 -6°C° 0 mm 6 mps 735 mmHg 89%
    09:00 -8°C° 0 mm 6 mps 736 mmHg 89%
    10:00 -8°C° 0 mm 6 mps 736 mmHg 88%
    11:00 -8°C° 0 mm 6 mps 737 mmHg 88%
    12:00 -7°C° 0 mm 5 mps 737 mmHg 87%
    13:00 -8°C° 0.1 mm 6 mps 738 mmHg 89%
    14:00 -8°C° 0.1 mm 6 mps 738 mmHg 91%
    15:00 -8°C° 0.1 mm 6 mps 739 mmHg 92%
    16:00 -9°C° 0.1 mm 6 mps 740 mmHg 90%
    17:00 -10°C° 0.1 mm 5 mps 740 mmHg 88%
    18:00 -11°C° 0.1 mm 5 mps 741 mmHg 86%
    19:00 -11°C° 0 mm 5 mps 742 mmHg 87%
    20:00 -12°C° 0 mm 5 mps 742 mmHg 88%
    21:00 -12°C° 0 mm 5 mps 743 mmHg 89%
    22:00 -12°C° 0 mm 4 mps 743 mmHg 90%
    23:00 -14°C° 0 mm 4 mps 744 mmHg 90%

    Day after tomorrow, 24 January, Friday

    Time Temperature Precipitation Wind Pressure Humidity
    00:00 -15°C° 0 mm 4 mps 744 mmHg 90%
    01:00 -15°C° 0 mm 4 mps 744 mmHg 91%
    02:00 -15°C° 0 mm 3 mps 745 mmHg 92%
    03:00 -16°C° 0 mm 3 mps 745 mmHg 93%
    04:00 -16°C° 0 mm 3 mps 746 mmHg 92%
    05:00 -16°C° 0 mm 3 mps 746 mmHg 92%
    06:00 -16°C° 0 mm 3 mps 746 mmHg 92%
    07:00 -16°C° 0 mm 3 mps 747 mmHg 92%
    08:00 -16°C° 0 mm 3 mps 748 mmHg 92%
    09:00 -16°C° 0 mm 3 mps 748 mmHg 92%
    10:00 -15°C° 0 mm 3 mps 748 mmHg 91%
    11:00 -14°C° 0 mm 3 mps 748 mmHg 90%
    12:00 -13°C° 0 mm 3 mps 748 mmHg 89%
    13:00 -14°C° 0 mm 4 mps 748 mmHg 88%
    14:00 -12°C° 0 mm 4 mps 748 mmHg 87%
    15:00 -13°C° 0 mm 5 mps 747 mmHg 87%
    16:00 -12°C° 0 mm 5 mps 747 mmHg 88%
    17:00 -12°C° 0 mm 6 mps 746 mmHg 88%
    18:00 -13°C° 0 mm 7 mps 745 mmHg 89%
    19:00 -11°C° 0.2 mm 7 mps 745 mmHg 91%
    20:00 -10°C° 0.2 mm 8 mps 744 mmHg 92%
    21:00 -8°C° 0.2 mm 8 mps 744 mmHg 94%
    22:00 -7°C° 0.3 mm 8 mps 743 mmHg 94%
    23:00 -7°C° 0.3 mm 8 mps 742 mmHg 94%

    25 January, Saturday

    Time Temperature Precipitation Wind Pressure Humidity
    00:00 -6°C° 0.3 mm 8 mps 741 mmHg 94%
    01:00 -4°C° 0.2 mm 7 mps 741 mmHg 95%
    02:00 -3°C° 0.2 mm 7 mps 740 mmHg 96%
    03:00 -2°C° 0.2 mm 6 mps 740 mmHg 98%
    04:00 -2°C° 0.2 mm 6 mps 740 mmHg 98%
    05:00 -2°C° 0.2 mm 6 mps 740 mmHg 98%
    06:00 -1°C° 0.2 mm 5 mps 740 mmHg 97%
    07:00 -1°C° 0 mm 5 mps 741 mmHg 97%
    08:00 -1°C° 0 mm 5 mps 741 mmHg 97%
    09:00 -1°C° 0 mm 4 mps 741 mmHg 97%
    10:00 -1°C° 0 mm 4 mps 741 mmHg 98%
    11:00 -1°C° 0 mm 5 mps 740 mmHg 99%
    12:00 -1°C° 0 mm 5 mps 740 mmHg 99%
    13:00 -1°C° 0.2 mm 5 mps 740 mmHg 99%
    14:00 -2°C° 0.2 mm 6 mps 739 mmHg 99%
    15:00 -2°C° 0.2 mm 6 mps 739 mmHg 99%
    16:00 -2°C° 0.1 mm 6 mps 739 mmHg 98%
    17:00 -2°C° 0.1 mm 6 mps 739 mmHg 98%
    18:00 -2°C° 0.1 mm 6 mps 738 mmHg 97%
    19:00 -2°C° 0.2 mm 7 mps 738 mmHg 97%
    20:00 -2°C° 0.2 mm 8 mps 738 mmHg 97%
    21:00 -2°C° 0.2 mm 8 mps 738 mmHg 97%
    22:00 -2°C° 0.2 mm 8 mps 737 mmHg 94%
    23:00 -2°C° 0.2 mm 8 mps 737 mmHg 92%

    26 January, Sunday

    Time Temperature Precipitation Wind Pressure Humidity
    00:00 -4°C° 0.2 mm 8 mps 737 mmHg 90%
    01:00 -4°C° 0.2 mm 8 mps 737 mmHg 89%
    02:00 -4°C° 0.2 mm 9 mps 737 mmHg 89%
    03:00 -4°C° 0.2 mm 10 mps 738 mmHg 88%
    04:00 -5°C° 0 mm 9 mps 738 mmHg 86%
    05:00 -6°C° 0 mm 8 mps 739 mmHg 84%
    06:00 -7°C° 0 mm 7 mps 739 mmHg 82%
    07:00 -7°C° 0 mm 7 mps 740 mmHg 84%
    08:00 -8°C° 0 mm 7 mps 741 mmHg 85%
    09:00 -8°C° 0 mm 7 mps 742 mmHg 86%
    10:00 -7°C° 0 mm 7 mps 742 mmHg 86%
    11:00 -7°C° 0 mm 7 mps 743 mmHg 86%
    12:00 -7°C° 0 mm 8 mps 743 mmHg 86%
    13:00 -7°C° 0 mm 7 mps 744 mmHg 86%
    14:00 -7°C° 0 mm 7 mps 744 mmHg 86%
    15:00 -7°C° 0 mm 7 mps 745 mmHg 85%
    16:00 -7°C° 0 mm 7 mps 745 mmHg 86%
    17:00 -8°C° 0 mm 6 mps 746 mmHg 87%
    18:00 -7°C° 0 mm 5 mps 747 mmHg 87%
    19:00 -7°C° 0 mm 5 mps 747 mmHg 87%
    20:00 -8°C° 0 mm 5 mps 748 mmHg 87%
    21:00 -8°C° 0 mm 5 mps 749 mmHg 87%
    22:00 -8°C° 0 mm 4 mps 749 mmHg 88%
    23:00 -9°C° 0 mm 4 mps 750 mmHg 89%

    27 January, Monday

    Time Temperature Precipitation Wind Pressure Humidity
    00:00 -10°C° 0 mm 4 mps 751 mmHg 90%
    01:00 -9°C° 0 mm 3 mps 751 mmHg 91%
    02:00 -10°C° 0 mm 3 mps 752 mmHg 91%
    03:00 -12°C° 0 mm 3 mps 753 mmHg 92%
    04:00 -12°C° 0 mm 3 mps 753 mmHg 92%
    05:00 -12°C° 0 mm 3 mps 754 mmHg 93%
    06:00 -12°C° 0 mm 2 mps 754 mmHg 93%
    07:00 -12°C° 0 mm 2 mps 755 mmHg 92%
    08:00 -12°C° 0 mm 2 mps 755 mmHg 92%
    09:00 -10°C° 0 mm 1 mps 756 mmHg 91%
    10:00 -10°C° 0 mm 1 mps 756 mmHg 90%
    11:00 -9°C° 0 mm 1 mps 757 mmHg 89%
    12:00 -8°C° 0 mm 1 mps 757 mmHg 88%
    13:00 -8°C° 0 mm 1 mps 757 mmHg 89%
    14:00 -9°C° 0 mm 2 mps 757 mmHg 89%
    15:00 -9°C° 0 mm 2 mps 756 mmHg 89%
    16:00 -10°C° 0 mm 3 mps 756 mmHg 89%
    17:00 -10°C° 0 mm 3 mps 756 mmHg 88%
    18:00 -11°C° 0 mm 4 mps 756 mmHg 88%
    19:00 -11°C° 0 mm 4 mps 756 mmHg 87%
    20:00 -11°C° 0 mm 5 mps 756 mmHg 87%
    21:00 -11°C° 0 mm 5 mps 756 mmHg 86%
    22:00 -11°C° 0 mm 6 mps 755 mmHg 87%
    23:00 -10°C° 0 mm 6 mps 755 mmHg 88%
    Show more